Location: Del Oro Observatory
(38.3044°N, 104.8119°W)
Time: 14:44:03
(UTC-06:00)

Iridium 35 - Visible Passes

Search period start: 18 April 2014 00:00
Search period end: 28 April 2014 00:00
Orbit: 776 x 779 km, 86.4° (Epoch: 18 April)

Date Brightness Start Highest point End Pass type
(mag) Time Alt. Az. Time Alt. Az. Time Alt. Az.
18 Apr 7.7 03:00:13 10° NE 03:02:37 13° ENE 03:05:00 10° ESE visible
18 Apr 5.0 04:38:39 10° N 04:43:48 65° W 04:47:48 17° SSW visible
19 Apr 5.3 04:05:07 10° N 04:10:19 67° E 04:13:45 21° SSE visible
19 Apr 6.8 05:48:14 10° NW 05:50:21 13° WNW 05:52:28 10° WSW visible
20 Apr 6.4 03:31:56 10° NNE 03:36:42 35° E 03:39:47 19° SE visible
20 Apr 6.2 05:13:06 10° NNW 05:17:10 24° W 05:20:13 14° SW visible
21 Apr 7.3 02:59:15 10° NNE 03:02:57 19° ENE 03:05:53 13° ESE visible
21 Apr 5.4 04:38:56 10° NNW 04:43:52 44° W 04:46:19 26° SW visible
22 Apr 4.9 04:05:13 10° N 04:10:26 84° W 04:12:27 39° S visible
23 Apr 5.7 03:31:49 10° N 03:36:54 52° E 03:38:39 36° SE visible
23 Apr 6.6 05:13:58 10° NW 05:17:06 16° W 05:19:05 13° WSW visible
24 Apr 6.7 02:58:47 10° NNE 03:03:14 28° E 03:04:52 23° ESE visible
24 Apr 5.9 04:39:23 10° NNW 04:43:52 30° W 04:45:19 26° WSW visible
25 Apr 7.4 02:26:29 10° NE 02:29:26 15° ENE 02:31:07 13° E visible
25 Apr 5.1 04:05:25 10° N 04:10:31 57° W 04:11:34 47° SW visible
26 Apr 5.0 03:31:49 10° N 03:37:03 77° E 03:37:51 62° SSE visible
26 Apr 7.0 05:15:49 10° WNW 05:17:00 11° WNW 05:18:10 10° W visible
27 Apr 6.0 02:58:34 10° NNE 03:03:28 40° E 03:04:10 38° ESE visible
27 Apr 6.3 04:40:02 10° NW 04:43:50 21° W 04:44:37 20° W visible
